Location: Knowlton
(51.2333°N, 1.2667°E)
Time: 22:57:51
(UTC+00:00)

ZACube-1 - Pass Details

Date: 07 December 2021
Orbit: 582 x 665 km, 97.6° (Epoch: 21 January)

Event Time Altitude Azimuth Distance (km) Brightness Sun altitude
Rises 05:26:24 0° 6° (N) 3,005 ? -20.5°
Reaches altitude 10° 05:28:50 10° 355° (N) 2,095 ? -20.1°
Enters shadow 05:29:47 15° 348° (NNW) 1,778 ? -20.0°
